Total_Precipitation_Accumulation
0.94 0.91 0.90 0.95 1.01 1.07 1.15 1.18 1.14 1.17 1.16 1.15 1.15 1.17 1.16 1.19 1.23 1.26 1.23 1.22 1.26 1.25 1.23 1.27 1.29 1.26 1.27 1.25 1.30 1.36 1.42 1.50 1.48 1.17 0.97 0.92 0.96 0.98 1.02 1.00 0.96 0.98 0.98
0.87 0.81 0.80 0.85 0.90 0.93 0.95 0.99 0.99 1.01 1.03 1.04 1.05 1.05 1.01 0.99 1.03 1.07 1.09 1.09 1.12 1.13 1.15 1.21 1.24 1.27 1.32 1.33 1.37 1.40 1.42 1.43 1.44 1.32 1.09 0.95 0.90 0.86 0.86 0.87 0.86 0.83 0.80
0.65 0.62 0.62 0.64 0.70 0.78 0.81 0.80 0.82 0.87 0.90 0.92 0.94 0.95 0.95 0.92 0.94 0.97 0.96 0.97 0.99 1.01 1.02 1.05 1.07 1.12 1.21 1.24 1.29 1.33 1.32 1.32 1.32 1.24 1.05 0.88 0.81 0.79 0.83 0.83 0.78 0.75 0.69
0.53 0.51 0.51 0.52 0.54 0.60 0.65 0.64 0.64 0.68 0.73 0.77 0.82 0.84 0.84 0.85 0.89 0.94 0.97 0.96 0.94 0.93 0.93 0.95 0.98 1.02 1.06 1.12 1.20 1.23 1.25 1.25 1.26 1.25 1.13 0.96 0.82 0.75 0.77 0.79 0.76 0.70 0.64
0.55 0.54 0.51 0.48 0.49 0.52 0.57 0.58 0.56 0.57 0.57 0.58 0.64 0.72 0.77 0.78 0.81 0.85 0.88 0.92 0.93 0.93 0.94 0.98 1.03 1.14 1.15 1.11 1.08 1.07 1.10 1.17 1.20 1.21 1.10 0.96 0.83 0.75 0.73 0.68 0.68 0.69 0.69
0.60 0.57 0.55 0.51 0.48 0.45 0.45 0.46 0.46 0.48 0.49 0.52 0.56 0.59 0.66 0.72 0.90 0.89 0.82 0.82 0.90 0.95 0.97 0.96 1.00 1.11 1.09 1.07 1.01 0.97 0.99 1.07 1.12 1.09 0.97 0.82 0.67 0.57 0.57 0.64 0.71 0.79 0.79
0.64 0.60 0.54 0.50 0.47 0.44 0.41 0.41 0.43 0.45 0.48 0.52 0.55 0.58 0.63 0.77 0.96 0.92 0.94 0.85 0.87 0.93 0.95 0.94 0.89 0.86 0.89 0.80 0.85 0.90 0.90 0.91 0.89 0.85 0.82 0.69 0.60 0.55 0.64 0.75 0.77 0.76 0.65
0.65 0.64 0.62 0.61 0.61 0.63 0.62 0.62 0.62 0.60 0.62 0.67 0.71 0.74 0.77 0.87 0.96 0.89 0.86 0.78 0.80 0.82 0.80 0.78 0.74 0.69 0.68 0.69 0.72 0.77 0.68 0.64 0.64 0.61 0.60 0.57 0.57 0.60 0.71 0.82 0.86 0.89 0.78
0.80 0.80 0.81 0.84 0.89 0.93 0.95 0.94 0.93 0.92 0.91 0.88 0.84 0.79 0.76 0.77 0.80 0.76 0.72 0.66 0.67 0.65 0.61 0.60 0.60 0.57 0.66 0.75 0.70 0.65 0.58 0.56 0.61 0.64 0.66 0.67 0.73 0.79 0.83 0.90 0.98 1.08 0.98
0.86 0.90 0.94 1.00 1.06 1.04 1.02 0.99 0.92 0.87 0.86 0.83 0.81 0.76 0.68 0.62 0.59 0.56 0.55 0.50 0.49 0.45 0.43 0.43 0.50 0.51 0.62 0.71 0.63 0.61 0.58 0.48 0.49 0.54 0.57 0.57 0.56 0.63 0.76 0.77 0.84 1.09 1.01
0.79 0.81 0.85 0.85 0.87 0.84 0.81 0.77 0.73 0.67 0.62 0.59 0.55 0.50 0.45 0.42 0.42 0.41 0.43 0.40 0.40 0.41 0.40 0.38 0.40 0.52 0.58 0.62 0.63 0.56 0.55 0.57 0.54 0.53 0.55 0.55 0.55 0.57 0.60 0.61 0.66 0.94 1.14
0.56 0.55 0.54 0.51 0.49 0.49 0.50 0.49 0.47 0.45 0.41 0.39 0.36 0.35 0.31 0.30 0.31 0.34 0.39 0.43 0.45 0.42 0.40 0.37 0.41 0.55 0.61 0.62 0.58 0.57 0.63 0.67 0.59 0.60 0.61 0.59 0.55 0.53 0.51 0.52 0.57 0.63 0.73
0.22 0.22 0.23 0.21 0.22 0.24 0.26 0.27 0.28 0.29 0.29 0.29 0.29 0.29 0.28 0.27 0.29 0.35 0.39 0.46 0.52 0.48 0.43 0.47 0.51 0.56 0.59 0.57 0.56 0.59 0.60 0.57 0.56 0.59 0.57 0.50 0.47 0.49 0.55 0.62 0.64 0.65 0.66
0.09 0.10 0.12 0.15 0.17 0.19 0.22 0.23 0.24 0.24 0.24 0.26 0.27 0.27 0.27 0.26 0.27 0.30 0.36 0.42 0.51 0.52 0.50 0.51 0.55 0.56 0.55 0.53 0.54 0.54 0.52 0.52 0.56 0.59 0.55 0.53 0.57 0.63 0.65 0.67 0.73 0.73 0.79
0.09 0.11 0.12 0.14 0.17 0.18 0.20 0.22 0.25 0.25 0.26 0.30 0.31 0.30 0.32 0.31 0.28 0.39 0.46 0.48 0.52 0.56 0.61 0.58 0.54 0.51 0.49 0.48 0.47 0.47 0.48 0.51 0.55 0.55 0.60 0.64 0.65 0.66 0.65 0.64 0.73 0.80 0.82
0.15 0.15 0.17 0.19 0.19 0.20 0.21 0.22 0.24 0.27 0.29 0.31 0.32 0.33 0.31 0.33 0.37 0.45 0.50 0.54 0.59 0.67 0.72 0.63 0.51 0.45 0.44 0.44 0.46 0.48 0.49 0.51 0.53 0.58 0.64 0.67 0.70 0.71 0.68 0.65 0.70 0.79 0.78
0.22 0.23 0.24 0.24 0.24 0.24 0.24 0.25 0.26 0.27 0.30 0.31 0.32 0.34 0.34 0.35 0.40 0.43 0.47 0.53 0.60 0.67 0.65 0.52 0.45 0.43 0.43 0.45 0.48 0.52 0.51 0.50 0.56 0.64 0.69 0.71 0.76 0.77 0.77 0.75 0.74 0.78 0.75
0.24 0.28 0.30 0.29 0.31 0.33 0.33 0.33 0.34 0.35 0.34 0.32 0.34 0.39 0.41 0.42 0.44 0.46 0.51 0.58 0.60 0.57 0.48 0.42 0.42 0.43 0.47 0.51 0.54 0.56 0.57 0.58 0.61 0.64 0.67 0.72 0.80 0.87 0.85 0.78 0.76 0.79 0.81
0.25 0.27 0.30 0.32 0.35 0.37 0.38 0.39 0.40 0.39 0.36 0.33 0.32 0.37 0.45 0.50 0.53 0.54 0.56 0.57 0.53 0.46 0.41 0.39 0.43 0.49 0.54 0.58 0.60 0.63 0.67 0.68 0.66 0.72 0.73 0.74 0.81 0.94 0.90 0.77 0.78 0.78 0.85
0.26 0.32 0.34 0.33 0.35 0.38 0.40 0.41 0.40 0.39 0.39 0.36 0.34 0.35 0.44 0.56 0.54 0.48 0.48 0.49 0.50 0.48 0.46 0.47 0.48 0.53 0.59 0.63 0.66 0.69 0.72 0.71 0.73 0.78 0.79 0.79 0.82 0.93 0.95 0.86 0.85 0.89 0.83
0.28 0.32 0.38 0.35 0.34 0.37 0.41 0.44 0.43 0.42 0.41 0.38 0.35 0.39 0.55 0.64 0.56 0.48 0.46 0.47 0.49 0.51 0.53 0.55 0.55 0.59 0.64 0.70 0.73 0.74 0.73 0.69 0.71 0.78 0.80 0.80 0.84 0.89 0.84 0.87 0.88 0.91 0.95
0.31 0.32 0.35 0.36 0.38 0.42 0.46 0.47 0.48 0.47 0.46 0.45 0.42 0.45 0.57 0.56 0.50 0.48 0.47 0.47 0.48 0.51 0.55 0.63 0.64 0.61 0.69 0.79 0.85 0.87 0.79 0.69 0.67 0.77 0.81 0.77 0.79 0.83 0.87 0.96 0.98 1.00 0.97
0.35 0.36 0.37 0.39 0.42 0.47 0.50 0.46 0.47 0.49 0.50 0.50 0.50 0.50 0.50 0.51 0.49 0.48 0.47 0.49 0.52 0.54 0.56 0.62 0.66 0.62 0.61 0.71 0.81 0.97 1.01 0.85 0.75 0.85 1.02 1.01 0.96 0.98 1.04 1.08 1.00 0.95 0.85
0.37 0.39 0.41 0.42 0.43 0.46 0.46 0.45 0.45 0.46 0.48 0.49 0.50 0.50 0.49 0.49 0.50 0.50 0.51 0.53 0.56 0.55 0.55 0.59 0.62 0.61 0.60 0.67 0.72 0.78 0.87 0.96 1.15 1.28 1.38 1.51 1.32 1.10 1.07 1.03 0.92 0.84 0.81
0.35 0.39 0.40 0.42 0.44 0.45 0.45 0.44 0.43 0.45 0.46 0.47 0.48 0.47 0.47 0.48 0.49 0.50 0.52 0.54 0.54 0.52 0.50 0.53 0.59 0.62 0.62 0.64 0.67 0.70 0.75 0.92 1.22 1.50 1.54 1.45 1.22 1.03 1.04 1.03 0.93 0.86 0.84
0.35 0.38 0.41 0.43 0.45 0.44 0.44 0.44 0.43 0.44 0.45 0.45 0.46 0.47 0.47 0.48 0.48 0.49 0.50 0.52 0.52 0.48 0.46 0.47 0.50 0.57 0.61 0.61 0.56 0.61 0.75 0.86 0.92 1.01 1.31 1.43 1.25 1.04 1.03 1.11 1.01 0.96 0.91